Probability
0 0 0 0 0 0 0 0 0 0 0 0 0 0 0 0 0 0 0 0 0 0 0 0 0 0 0 0 0 0 0 0 0 0 0 0 0 0
0 0 0 0 0 0 0 0 0 0 0 0 0 0 0 0 0 0 0 0 0 0 0 0 0 0 0 0 0 0 0 0 0 0 0 0 0 0
0 0 0 0 0 0 0 0 0 0 0 0 0 0 0 0 0 0 0 0 0 0 0 0 0 0 0 0 0 0 0 0 0 0 0 0 0 0
0 0 0 0 0 0 0 0 0 0 0 0 0 0 0 0 0 0 0 0 0 0 0 0 0 0 0 0 0 0 0 0 0 0 0 0 0 0
0 0 0 0 0 0 0 0 0 0 0 0 0 0 0 0 0 0 0 0 0 0 0 0 0 0 0 0 0 0 0 0 0 0 0 0 0 0
0 0 0 0 0 0 0 0 0 0 0 0 0 0 0 0 0 0 0 0 0 0 0 0 0 0 0 0 0 0 0 0 0 0 0 0 0 0
0 0 0 0 0 0 0 0 0 0 0 0 0 0 0 0 0 0 0 0 0 0 0 0 0 0 0 0 0 0 0 0 0 0 0 0 0 0
0 0 0 0 0 0 0 0 0 0 0 0 0 0 0 0 0 0 0 0 0 0 0 0 0 0 0 0 0 0 0 0 0 0 0 0 0 0
0 0 0 0 0 0 0 0 0 0 0 0 0 0 0 0 0 0 0 0 0 0 0 0 0 0 0 0 0 0 0 0 0 0 0 0 0 0
0 0 0 0 0 0 0 0 0 0 0 0 0 0 0 0 0 0 0 0 0 0 0 0 0 0 0 0 0 0 0 0 0 0 0 0 0 0
0 0 0 0 0 0 0 0 0 0 0 0 0 0 0 0 0 0 0 0 0 0 0 0 0 0 0 0 0 0 0 0 0 0 0 0 0 0
0 0 0 0 0 0 0 0 0 0 0 0 0 0 0 0 0 0 0 0 0 0 0 0 0 0 0 0 0 0 0 0 0 0 0 0 0 0
0 0 0 0 0 0 0 0 0 0 0 0 0 0 0 0 0 0 0 0 0 0 0 0 0 0 0 0 0 0 0 0 0 0 0 0 0 0
0 0 0 0 0 0 0 0 0 0 0 0 0 0 0 0 0 0 0 0 0 0 0 0 0 0 0 0 0 0 0 0 0 0 0 0 0 0
0 0 0 0 0 0 0 0 0 0 0 0 0 0 0 0 0 0 0 0 0 0 0 0 0 0 0 0 0 0 0 0 0 0 0 0 0 0
0 0 0 0 0 0 0 0 0 0 0 0 0 0 0 0 0 0 0 0 0 0 0 0 0 0 0 0 0 0 0 0 0 0 0 0 0 0
0 0 0 0 0 0 0 0 0 0 0 0 0 0 0 0 0 0 0 0 0 0 0 0 0 0 0 0 0 0 0 0 0 0 0 0 0 0
0 0 0 0 0 0 0 0 0 0 0 0 0 0 0 0 0 0 0 0 0 0 0 0 0 0 0 0 0 0 0 0 0 0 0 0 0 0
0 0 0 0 0 0 0 0 0 0 0 0 0 0 0 0 0 0 0 0 0 0 0 0 0 0 0 0 0 0 0 0 0 0 0 0 0 0
0 0 0 0 0 0 0 0 0 0 0 0 0 0 0 0 0 0 0 0 0 0 0 0 0 0 0 0 0 0 0 0 0 0 0 0 0 0
0 0 0 0 0 0 0 0 0 0 0 0 0 0 0 0 0 0 0 0 0 0 0 0 0 0 0 0 0 0 0 0 0 0 0 0 0 0
0 0 0 0 0 0 0 0 0 0 0 0 0 0 0 0 0 0 0 0 0 0 0 0 0 0 0 0 0 0 0 0 0 0 0 0 0 0
0 0 0 0 0 0 0 0 0 0 0 0 0 0 0 0 0 0 0 0 0 0 0 0 0 0 0 0 0 0 0 0 0 0 0 0 0 0
Height
5609 5602 5597 5593 5588 5584 5580 5577 5575 5577 5584 5587 5583 5582 5578 5576 5575 5574 5576 5576 5576 5577 5578 5579 5579 5580 5580 5580 5580 5581 5581 5582 5584 5585 5586 5588 5590 5591
5583 5577 5572 5568 5562 5559 5555 5553 5549 5549 5555 5565 5561 5558 5555 5554 5553 5553 5554 5554 5555 5556 5557 5558 5559 5560 5560 5561 5561 5562 5563 5564 5565 5566 5567 5569 5571 5572
5557 5551 5547 5541 5536 5533 5529 5527 5526 5524 5527 5538 5536 5535 5532 5532 5531 5531 5532 5533 5534 5535 5536 5537 5538 5539 5540 5541 5542 5542 5543 5544 5545 5547 5548 5549 5551 5553
5531 5524 5520 5514 5511 5508 5504 5503 5502 5501 5501 5509 5513 5511 5511 5510 5509 5509 5511 5512 5513 5514 5514 5516 5517 5518 5520 5521 5522 5522 5523 5524 5525 5526 5528 5530 5531 5533
5505 5499 5495 5489 5486 5483 5480 5479 5479 5478 5478 5483 5489 5488 5488 5488 5487 5488 5489 5490 5492 5493 5493 5495 5496 5498 5499 5500 5501 5502 5503 5504 5505 5506 5507 5509 5510 5512
5480 5475 5471 5466 5463 5460 5458 5457 5456 5456 5457 5459 5465 5466 5466 5466 5466 5468 5468 5469 5470 5471 5473 5474 5476 5477 5479 5480 5481 5482 5482 5483 5484 5485 5486 5488 5489 5491
5459 5454 5449 5445 5441 5439 5437 5437 5436 5436 5436 5438 5442 5443 5445 5445 5446 5446 5446 5447 5449 5451 5452 5454 5455 5457 5458 5459 5460 5460 5461 5462 5463 5464 5465 5466 5468 5470
5440 5435 5431 5427 5423 5420 5419 5418 5417 5417 5418 5418 5421 5423 5424 5424 5424 5424 5425 5427 5431 5433 5431 5434 5435 5437 5438 5438 5438 5438 5439 5440 5442 5443 5444 5445 5446 5448
5421 5417 5413 5410 5406 5403 5401 5400 5400 5399 5400 5400 5402 5404 5404 5404 5403 5405 5406 5407 5410 5410 5411 5414 5415 5416 5417 5416 5416 5417 5418 5419 5421 5422 5423 5423 5424 5426
5403 5398 5395 5393 5389 5387 5385 5384 5384 5383 5382 5382 5384 5386 5385 5385 5385 5386 5386 5388 5390 5391 5392 5395 5395 5396 5396 5396 5396 5397 5398 5399 5400 5400 5401 5401 5402 5403
5387 5382 5379 5376 5374 5370 5369 5369 5369 5368 5366 5365 5366 5367 5368 5368 5367 5368 5368 5369 5371 5372 5372 5374 5376 5375 5376 5377 5377 5377 5377 5378 5378 5379 5379 5379 5379 5380
5373 5368 5364 5361 5359 5356 5354 5354 5354 5353 5351 5350 5350 5350 5350 5351 5350 5351 5351 5351 5353 5354 5354 5354 5356 5355 5358 5359 5358 5358 5358 5358 5358 5358 5358 5358 5357 5357
5360 5356 5352 5348 5345 5343 5340 5339 5339 5338 5337 5336 5335 5335 5334 5334 5334 5334 5334 5335 5335 5337 5337 5336 5337 5337 5339 5341 5341 5340 5339 5338 5338 5337 5337 5336 5334 5334
5347 5343 5340 5336 5333 5330 5328 5326 5324 5323 5322 5321 5321 5320 5319 5319 5318 5318 5317 5318 5319 5319 5319 5319 5320 5320 5321 5322 5324 5323 5321 5320 5318 5318 5316 5315 5314 5312
5335 5331 5328 5324 5321 5318 5316 5313 5311 5309 5307 5307 5306 5305 5304 5303 5302 5302 5302 5302 5303 5303 5302 5302 5303 5303 5303 5305 5305 5305 5304 5302 5300 5298 5297 5296 5295 5293
5324 5320 5316 5313 5309 5307 5304 5301 5298 5296 5294 5292 5291 5290 5289 5288 5288 5287 5287 5287 5287 5287 5286 5286 5286 5287 5287 5287 5288 5288 5286 5284 5283 5280 5278 5278 5276 5274
5314 5310 5306 5302 5298 5295 5292 5289 5286 5283 5281 5278 5276 5275 5275 5274 5274 5273 5273 5273 5273 5272 5271 5271 5270 5271 5271 5271 5271 5270 5268 5266 5264 5262 5260 5260 5259 5255
5303 5299 5295 5291 5288 5284 5281 5278 5275 5271 5268 5266 5263 5262 5261 5261 5261 5260 5260 5259 5259 5258 5258 5257 5256 5255 5256 5256 5255 5253 5251 5249 5247 5244 5241 5240 5241 5237
5292 5289 5285 5281 5278 5274 5270 5267 5264 5261 5257 5254 5252 5250 5249 5248 5248 5248 5247 5247 5246 5246 5245 5243 5242 5241 5241 5242 5241 5237 5234 5232 5230 5228 5225 5222 5221 5219
5283 5279 5275 5271 5267 5264 5260 5257 5254 5250 5247 5244 5241 5239 5238 5237 5237 5236 5236 5235 5234 5234 5233 5231 5230 5228 5227 5227 5226 5224 5218 5215 5214 5212 5209 5205 5203 5200
5274 5269 5265 5261 5257 5253 5250 5247 5243 5240 5237 5234 5232 5230 5228 5227 5226 5226 5225 5224 5223 5222 5221 5220 5217 5215 5214 5213 5212 5211 5206 5201 5198 5196 5193 5189 5186 5183
5266 5261 5257 5252 5247 5244 5240 5237 5234 5231 5227 5225 5223 5221 5219 5218 5217 5216 5215 5214 5213 5211 5210 5208 5206 5204 5202 5200 5199 5197 5194 5190 5185 5181 5177 5173 5169 5167
5259 5254 5249 5244 5240 5236 5232 5229 5225 5222 5219 5216 5214 5212 5210 5209 5208 5206 5205 5204 5202 5201 5199 5197 5195 5193 5191 5188 5186 5184 5181 5177 5173 5170 5166 5160 5157 5155
Wind_Speed
82 82 82 82 82 82 82 82 82 80 76 74 74 73 73 73 74 74 72 72 71 70 69 67 66 66 65 64 64 64 64 63 63 63 63 63 63 63
84 84 84 84 83 83 83 82 82 81 78 73 74 74 74 74 74 73 72 72 71 71 70 68 67 67 66 65 65 64 64 64 64 64 64 64 64 64
85 85 84 84 84 83 83 82 81 80 78 73 74 74 74 74 74 73 72 72 71 71 70 69 68 67 66 66 65 65 65 65 65 65 66 66 66 65
83 83 82 81 81 80 80 80 79 78 77 74 72 73 73 73 73 73 72 71 71 71 70 69 69 68 67 66 66 66 66 66 66 66 66 66 66 67
79 79 77 77 76 75 75 75 74 74 74 72 69 70 71 71 71 70 70 70 70 69 69 69 68 67 66 66 66 66 66 66 66 66 66 66 67 67
74 72 71 71 70 70 70 69 69 69 69 68 67 67 68 68 68 67 67 67 67 68 68 67 67 67 67 67 67 66 66 66 66 66 67 67 67 67
67 66 65 65 65 65 64 64 64 64 64 64 63 64 65 66 66 66 67 66 66 66 66 66 67 67 67 67 67 67 67 66 66 66 67 67 67 67
62 61 60 60 60 60 60 60 60 60 59 59 59 59 60 62 63 65 65 65 65 65 67 67 67 66 66 66 66 66 65 65 65 66 66 67 67 67
58 57 57 56 57 57 57 58 57 57 57 56 56 56 58 60 61 62 63 63 64 65 65 64 64 63 64 64 64 64 64 64 65 65 66 66 67 67
55 54 54 53 53 53 53 53 54 54 55 55 54 53 54 55 57 59 60 61 62 62 63 63 62 62 62 63 63 63 64 64 65 65 66 66 67 67
51 50 50 50 49 50 50 49 49 49 51 52 52 52 52 53 54 55 56 57 58 59 60 60 60 60 60 60 60 61 62 63 63 64 65 66 67 68
47 46 46 46 46 46 46 46 45 46 47 48 49 49 50 50 51 52 53 54 54 55 56 57 57 58 58 57 58 59 60 61 62 63 64 65 67 68
43 42 42 43 44 44 44 44 44 45 46 46 47 47 48 48 49 50 51 51 52 52 53 54 55 56 56 55 56 57 58 59 60 62 63 64 65 66
41 40 40 40 41 41 42 42 43 44 44 44 45 45 47 48 49 49 50 50 50 50 51 52 53 54 54 54 53 54 55 57 58 59 60 61 62 63
41 39 38 38 38 39 40 41 42 42 43 43 44 45 45 46 47 48 47 48 48 48 49 50 50 51 52 52 52 52 53 54 55 56 57 58 59 60
40 39 38 38 37 38 38 39 40 41 41 42 42 43 43 44 44 44 44 44 44 44 46 47 48 49 49 50 50 49 50 51 52 54 55 56 56 56
38 37 36 36 36 36 37 38 38 39 39 39 39 39 40 40 40 40 41 41 42 42 43 44 45 46 47 47 47 47 48 49 50 52 53 53 53 53
37 36 35 35 35 35 35 35 36 36 37 36 36 36 36 37 37 38 38 38 38 39 41 42 44 45 45 44 45 45 46 48 49 51 51 51 49 50
36 35 34 34 34 34 34 34 34 35 35 34 34 34 34 35 35 35 36 36 36 37 38 40 41 42 43 42 42 44 46 47 48 48 48 48 47 46
34 34 34 34 35 34 34 34 34 34 33 33 32 32 32 33 33 33 34 34 34 35 36 38 40 41 41 40 39 40 44 45 45 45 45 45 45 45
33 33 33 34 34 33 33 33 32 32 32 31 30 30 30 30 30 31 31 32 32 33 34 36 37 38 38 38 37 36 39 42 43 43 43 43 42 40
31 31 31 31 31 30 30 29 29 29 29 28 27 27 28 28 28 28 29 30 31 32 32 33 35 36 36 36 35 35 36 39 41 42 41 40 37 32
30 30 29 28 28 26 26 26 26 26 26 26 26 26 26 26 26 27 28 29 29 30 31 32 32 33 34 34 35 35 36 37 37 36 36 36 32 27
Wind_Direction
283 282 281 279 278 276 275 274 274 273 271 271 270 270 269 269 269 269 270 271 271 271 271 271 271 271 271 270 269 269 269 268 267 267 266 266 265 264
283 281 280 278 277 275 274 273 272 272 270 269 268 268 267 268 268 268 269 269 269 270 270 270 270 270 270 269 269 269 268 267 267 267 266 266 265 264
283 281 280 278 276 275 273 272 271 271 270 268 267 267 267 267 267 267 267 268 268 268 269 269 269 269 269 268 268 268 268 268 267 266 266 265 265 264
283 282 280 279 277 275 274 273 272 271 270 269 267 267 267 267 267 267 267 266 267 267 267 267 268 268 268 267 268 269 269 268 267 266 266 265 265 264
285 283 281 279 278 276 275 274 272 271 270 270 268 267 267 267 267 267 266 266 266 266 266 266 266 267 267 267 268 268 269 268 267 267 266 266 265 264
287 285 283 281 279 277 276 275 273 272 270 269 268 267 267 266 266 266 266 265 265 265 265 265 266 266 267 267 267 268 268 268 267 266 266 266 265 265
287 286 284 282 280 278 276 275 274 273 272 271 268 267 266 265 265 264 264 264 264 265 265 266 266 267 266 267 268 268 268 267 267 267 266 266 266 265
288 286 284 283 281 279 277 276 274 274 273 272 270 268 267 266 264 264 263 263 264 265 265 266 267 267 267 267 267 267 267 267 266 267 267 267 266 266
290 287 284 283 281 280 278 277 276 275 273 272 271 269 268 266 265 265 265 265 265 265 265 266 267 267 267 267 266 266 266 266 267 267 267 267 267 267
291 289 286 284 282 281 279 277 276 276 274 273 272 270 268 268 268 268 267 266 265 266 266 266 267 267 267 267 267 267 267 267 267 268 268 268 268 268
293 290 288 286 284 282 280 279 277 277 275 274 273 271 270 270 269 269 268 268 267 267 267 267 267 266 266 267 267 267 267 268 268 269 269 269 269 269
294 291 289 288 286 284 282 281 279 278 276 275 274 273 272 271 271 270 269 269 268 268 268 267 266 266 266 267 268 268 268 269 269 270 270 270 271 271
296 293 290 289 287 285 283 282 280 279 277 275 274 274 273 273 273 272 270 270 269 269 268 267 267 267 267 267 268 269 270 270 271 271 272 272 272 273
300 296 294 291 289 287 285 284 283 281 279 277 275 274 274 273 273 272 272 271 270 270 269 269 268 268 269 268 269 269 270 271 272 272 273 273 273 274
302 299 297 294 291 289 288 286 285 283 281 280 278 276 275 274 274 273 273 272 271 270 270 270 269 269 269 270 270 270 270 271 272 272 272 273 274 275
302 301 299 296 294 291 290 288 287 286 284 283 281 278 276 275 274 274 273 273 273 272 270 270 270 270 270 271 271 271 271 271 272 272 273 274 275 275
302 301 299 297 295 293 291 290 289 288 287 285 282 280 277 276 275 274 274 274 273 272 271 271 271 272 272 274 274 273 273 273 274 275 275 275 275 276
303 301 300 298 297 295 294 292 292 291 289 287 285 281 278 276 275 275 275 274 273 273 272 273 273 274 275 275 275 275 275 276 276 277 278 278 277 276
305 303 302 300 299 297 296 294 294 293 292 289 286 283 280 278 276 276 275 275 275 274 274 274 274 276 276 276 277 278 279 278 279 280 281 281 280 277
307 305 302 301 299 298 296 295 294 294 292 290 288 284 281 279 277 276 276 276 276 276 276 276 277 278 279 279 279 279 280 281 282 283 283 283 282 280
310 308 306 304 301 298 296 295 295 295 294 291 288 285 283 280 279 278 278 278 277 278 278 279 280 280 281 282 282 282 282 283 285 286 286 285 283 282
314 313 311 309 306 302 299 298 297 296 295 292 289 286 284 282 281 280 280 281 280 280 280 281 281 282 284 285 285 284 283 285 288 289 289 288 286 282
317 316 315 314 312 309 305 303 301 299 296 294 291 289 287 285 283 283 283 283 282 283 283 283 283 284 285 286 287 287 287 288 289 289 289 288 286 281